Voltar ao catálogo

SL-12 DEB

LostHEO
NORAD 32024·DEBRIS·🇷🇺 Russia

Lançado Nov 12, 1997 de Baikonur Cosmodrome

Loading…

Próximas Passagens (próximas 24 horas)

TLE

ObsoletoSource: Space-Track

Época: Sep 6, 2011, 13:38 UTC

1 32024U 97070J   11249.56855400  .00044873  00000-0  20160-1 0  9990
2 32024  47.0233 330.1695 4591934 227.9394  90.7250  6.19738058 99761

Acompanhe SL-12 DEB em tempo real com AllMySat

Download on the App Store